Flag for Germany Weather past 2 weeks in Fürstenfeldbruck, Bavaria, Germany

34 °F

Partly sunny.

Feels Like: 31 °F
Forecast: 25 / 38 °F
Wind: 3 mph from North

Location: Oberpfaffenhofen

Current Time: Nov 27, 2015 at 1:32:37 PM

Latest Report: Nov 27, 2015 at 12:50 PM

Visibility: 5 mi

Pressure: 30.04 "Hg (28.15 "Hg at 520m altitude)

Humidity: 93%

Dew point: 32 °F

Location of FürstenfeldbruckLocation

Historic Weather in Fürstenfeldbruck — Graph


Fürstenfeldbruck temperature yesterday

Maximum temperature yesterday: 36 °F (at 10:20 AM)
Minimum temperature yesterday: 32 °F (at 6:50 AM)
Average temperature yesterday: 34 °F

Past Weeks' High & Low Weather Summary

High66 °F (Nov 16, 1:20 PM)100% (Nov 12, 8:50 PM)30.42 "Hg (Nov 12, 8:50 PM)
Low19 °F (Nov 24, 6:50 AM)43% (Nov 16, 1:20 PM)29.42 "Hg (Nov 21, 3:50 PM)
Average44 °F79%30.03 "Hg
* Reported Nov 12 12:20 PM — Nov 27 12:20 PM, Fürstenfeldbruck, Weather by CustomWeather, © 2015

Note: Actual official high and low records may vary slightly from our data, if they occured in-between our weather recording intervals... More about our weather records


Fürstenfeldbruck weather history for previous 24 hours

Time TempWeatherWind HumidityBarometerVisibility
12:20 PM
Fri, Nov 27
34 °FPartly sunny.3 mph93%30.04 "Hg5 mi
11:50 AM32 °FChilly.5 mph100%30.04 "Hg4 mi
11:20 AM32 °FPartly sunny.5 mph100%30.07 "Hg4 mi
10:50 AM32 °FPartly sunny.3 mph100%30.07 "Hg4 mi
10:20 AM32 °FIce fog.5 mph93%30.07 "Hg3 mi
9:50 AM30 °FIce fog.2 mph100%30.07 "Hg2 mi
9:20 AM30 °FIce fog.2 mph100%30.07 "Hg1 mi
8:50 AM30 °FIce fog.2 mph100%30.07 "Hg1 mi
8:20 AM30 °FIce fog.No wind100%30.09 "Hg1 mi
7:50 AM30 °FIce fog.No wind100%30.09 "Hg1 mi
7:20 AM30 °FIce fog.1 mph93%30.09 "Hg1 mi
6:50 AM28 °FIce fog.No wind100%30.09 "Hg1 mi
7:50 PM
Thu, Nov 26
32 °FPassing clouds.1 mph100%30.07 "Hg4 mi
7:20 PM34 °FPartly cloudy.2 mph100%30.07 "Hg4 mi
6:50 PM34 °FPartly cloudy.5 mph100%30.07 "Hg4 mi
6:20 PM34 °FPartly cloudy.6 mph100%30.04 "Hg4 mi
5:50 PM34 °FPassing clouds.2 mph100%30.04 "Hg4 mi
5:20 PM34 °FPassing clouds.3 mph100%30.01 "Hg4 mi
4:50 PM34 °FPartly cloudy.3 mph93%30.01 "Hg4 mi
4:20 PM34 °FSprinkles. Mostly cloudy.5 mph100%30.01 "Hg2 mi
3:50 PM34 °FLight snow. Mostly cloudy.6 mph100%29.98 "Hg2 mi
3:20 PM34 °FFog.5 mph100%29.98 "Hg2 mi
2:50 PM34 °FPartly sunny.7 mph100%29.95 "Hg4 mi
2:20 PM36 °FPartly sunny.6 mph93%29.95 "Hg4 mi
1:50 PM36 °FPartly sunny.6 mph93%29.95 "Hg4 mi
1:20 PM34 °FLight rain. Low clouds.3 mph100%29.92 "Hg3 mi
Weather by CustomWeather, © 2015

See weather overviewHow to use our weather pages